Regional Weather Roundup
Issued by NWS

Home | Current Version | Previous Version | Graphics & Text | Print | Product List | Glossary On
Versions: 1 2 3 4 5 6 7 8 9 10 11 12 13 14 15 16 17 18 19 20 21 22 23 24 25 26 27 28 29 30 31 32 33 34 35 36 37 38 39 40 41 42 43 44 45 46 47 48 49 50
000
ASUS43 KIND 311909
RWRIN

WEATHER ROUNDUP FOR INDIANA
NATIONAL WEATHER SERVICE INDIANAPOLIS IN
300 PM EDT SUN MAY 31 2020

NOTE: "FAIR" INDICATES FEW OR NO CLOUDS BELOW 12,000 FEET WITH NO
SIGNIFICANT WEATHER AND/OR OBSTRUCTIONS TO VISIBILITY.

* - STATION DOES NOT REPORT WEATHER SUCH AS PRECIPITATION OR FOG.

+ - STATION NOT QUALITY CONTROLLED BY THE NATIONAL WEATHER SERVICE.
    USE DATA WITH CAUTION...ESPECIALLY DEWPOINT AND RELATIVE
    HUMIDITY OBSERVATIONS.

INZ001>003-010>013-019-020-312000-
NORTHWEST INDIANA

CITY           SKY/WX    TMP DP  RH WIND       PRES   REMARKS
GARY /AIRPORT/ SUNNY     59 N/A N/A N8        30.36F
KNOX *+        SUNNY     66  37  34 N9G16     30.32F
LA PORTE +     SUNNY     64  41  43 N9        30.34F
MICHIGAN CITY+ SUNNY     59  48  67 N9        30.35S
MONTICELLO +   SUNNY     69  38  32 E8        30.30F
RENSSELAER +   SUNNY     68  39  34 N6        30.32F
VALPARAISO     SUNNY     67  39  35 N8        30.33F

$$

LMZ046-743>745-312000-
SOUTHERN LAKE MICHIGAN

STATION/POSITION TIME  TEMP    WIND        PRES    WAVE
                       AIR SEA DIR/SP/G            HT
                 (UTC) (F)     (DEG/KT/KT) (MB)    (FT)
MICHIGAN CITY    1840   54      10/  8/  9   N/A

$$

INZ004-005-014>016-021>024-312000-
NORTH CENTRAL INDIANA

CITY           SKY/WX    TMP DP  RH WIND       PRES   REMARKS
ELKHART        SUNNY     64  34  32 N6        30.33
GOSHEN         SUNNY     65  34  31 N12G20    30.32F
LOGANSPORT +   SUNNY     68  39  34 W5        30.32F
PERU/GRISSOM   SUNNY     67  44  43 NE8       30.31F
PLYMOUTH *+    SUNNY     66  39  37 NW12      30.32S
ROCHESTER +    SUNNY     68  39  34 NW8       30.32F
SOUTH BEND     SUNNY     65  39  38 NW14      30.34S
WARSAW +       SUNNY     64  37  36 W13       30.32S

$$

INZ006>009-017-018-025>027-312000-
NORTHEAST INDIANA

CITY           SKY/WX    TMP DP  RH WIND       PRES   REMARKS
ANGOLA *+      SUNNY     61  34  36 NW7       30.32F
AUBURN +       SUNNY     63  37  39 N6        30.32F
FORT WAYNE     SUNNY     68  38  33 N13       30.31F
HUNTINGTON +   SUNNY     65  37  36 NW9       30.31F
KENDALLVILLE + FAIR      66  29  25 NW8       30.32F

$$

INZ028-029-035-036-043>045-051>053-312000-
WEST CENTRAL INDIANA

CITY           SKY/WX    TMP DP  RH WIND       PRES   REMARKS
CRAWFORDSVL +  SUNNY     67  40  36 N3        30.31S
GREENCASTLE +  FAIR      70  40  33 NE6       30.30F
LAFAYETTE      SUNNY     73  45  36 N10       30.31F
TERRE HAUTE    SUNNY     73  43  33 MISG      30.29F

$$

INZ030>032-037>040-046>048-054>057-064-065-312000-
CENTRAL INDIANA

CITY           SKY/WX    TMP DP  RH WIND       PRES   REMARKS
FRANKFORT +    CLOUDY    70  42  37 NE9       30.33F
GREENWOOD *+   SUNNY     67  45  44 N8G17     30.31S
INDIANAPOLIS   MOSUNNY   69  44  40 N9        30.29F
-EAGLE CREEK   SUNNY     69  43  38 VRB5      30.29F
KOKOMO +       SUNNY     68  43  40 VRB7      30.32F
MARION +       SUNNY     65  45  48 NW8       30.32F
MT COMFORT *+  SUNNY     68  48  49 N6        30.31F
SHELBYVILLE    SUNNY     71  42  35 NE7       30.29F
ZIONSVILLE +   SUNNY     65  42  43 N8        30.32F

$$

INZ033-034-041-042-049-050-058-059-312000-
EAST CENTRAL INDIANA

CITY           SKY/WX    TMP DP  RH WIND       PRES   REMARKS
MUNCIE         SUNNY     68  40  35 NW9       30.31F
PORTLAND +     FAIR      64  32  29 NW7       30.30F
RICHMOND +     FAIR      64  41  42 NE8       30.31S

$$

INZ060-061-067>069-081>083-085>088-312000-
SOUTHWEST INDIANA

CITY           SKY/WX    TMP DP  RH WIND       PRES   REMARKS
EVANSVILLE     SUNNY     76  48  37 N9        30.26F
HUNTINGBURG +  SUNNY     74  49  41 N10       30.27F
WASHINGTON +   SUNNY     73  46  38 N7        30.28F

$$

INZ062-063-066-070>080-084-089>092-312000-
SOUTH CENTRAL AND SOUTHEAST INDIANA

CITY           SKY/WX    TMP DP  RH WIND       PRES   REMARKS
BATESVILLE +   SUNNY     68  43  40 NE10      30.29F
BLOOMINGTON    SUNNY     73  44  35 N9        30.29F
FRENCH LICK *+ FAIR      70  43  37 E5        30.28F
JEFFERSONVL +  FAIR      73  43  34 N8        30.27F
MADISON *+     SUNNY     70  39  32 E6        30.30S

$$




USA.gov is the U.S. government's official web portal to all federal, state and local government web resources and services.